Torna al catalogo

ONEWEB-0647

AttivoComunicazioniPO
NORAD 56079·PAYLOAD·🇬🇧 United Kingdom

Lanciato Mar 26, 2023 da Satish Dhawan Space Centre

Loading…

Prossimi Passaggi (prossime 24 ore)

TLE

AggiornatoSource: CelesTrak SupGP

Epoca: Sep 15, 2026, 04:30 UTC

1 56079C 23043AK  26258.18764306 -.00000573  00000+0 -15237-2 0  2581
2 56079  87.8983 241.2791 0002222  86.3878 324.0462 13.15547692    11

Traccia ONEWEB-0647 in tempo reale con AllMySat

Download on the App Store